Time,TemperatureF,DewpointF,PressureIn,WindDirection,WindDirectionDegrees,WindSpeedMPH,WindSpeedGustMPH,Humidity,HourlyPrecipIn,Conditions,Clouds,dailyrainin,SoftwareType,DateUTC
2014-04-16 00:23:00,37.0,32.0,29.95,West,273,5.0,-999.0,81,-99.99,,,-99.99,,2014-04-16 04:23:00,
2014-04-16 00:44:00,37.0,30.0,29.93,NW,313,7.0,-999.0,77,-99.99,,,-99.99,,2014-04-16 04:44:00,
2014-04-16 00:53:00,37.0,30.0,29.94,WNW,282,8.0,-999.0,76,-99.99,,,-99.99,,2014-04-16 04:53:00,
2014-04-16 01:22:00,36.0,29.0,29.97,NW,321,8.0,-999.0,74,-99.99,,,-99.99,,2014-04-16 05:22:00,
2014-04-16 01:42:00,36.0,29.0,29.97,West,272,8.0,-999.0,75,-99.99,,,-99.99,,2014-04-16 05:42:00,
2014-04-16 01:53:00,36.0,28.0,29.97,WSW,251,9.0,-999.0,72,-99.99,,,-99.99,,2014-04-16 05:53:00,
2014-04-16 02:22:00,36.0,27.0,29.98,West,273,9.0,-999.0,70,-99.99,,,-99.99,,2014-04-16 06:22:00,
2014-04-16 02:42:00,35.0,26.0,29.99,WNW,295,9.0,-999.0,70,-99.99,,,-99.99,,2014-04-16 06:42:00,
2014-04-16 02:52:00,35.0,27.0,29.98,WNW,294,7.0,-999.0,72,-99.99,,,-99.99,,2014-04-16 06:52:00,
2014-04-16 03:22:00,34.0,25.0,30.01,NW,318,8.0,-999.0,68,-99.99,,,-99.99,,2014-04-16 07:22:00,
2014-04-16 03:52:00,34.0,24.0,30.04,NW,314,8.0,-999.0,67,-99.99,,,-99.99,,2014-04-16 07:52:00,
2014-04-16 04:22:00,33.0,24.0,30.10,NNW,333,6.0,-999.0,69,-99.99,,,-99.99,,2014-04-16 08:22:00,
2014-04-16 04:52:00,32.0,22.0,30.11,NNW,338,7.0,-999.0,65,-99.99,,,-99.99,,2014-04-16 08:52:00,
2014-04-16 05:22:00,31.0,20.0,30.12,WNW,293,9.0,-999.0,63,-99.99,,,-99.99,,2014-04-16 09:22:00,
2014-04-16 05:44:00,31.0,18.0,30.14,NW,315,11.0,-999.0,59,-99.99,,,-99.99,,2014-04-16 09:44:00,
2014-04-16 05:54:00,31.0,19.0,30.14,WNW,300,8.0,-999.0,60,-99.99,,,-99.99,,2014-04-16 09:54:00,
2014-04-16 06:24:00,31.0,19.0,30.18,WNW,292,5.0,-999.0,60,-99.99,,,-99.99,,2014-04-16 10:24:00,
2014-04-16 06:43:00,30.0,17.0,30.20,West,281,5.0,-999.0,59,-99.99,,,-99.99,,2014-04-16 10:43:00,
2014-04-16 06:53:00,30.0,17.0,30.22,West,259,6.0,-999.0,57,-99.99,,,-99.99,,2014-04-16 10:53:00,
2014-04-16 07:22:00,30.0,17.0,30.24,WNW,292,7.0,-999.0,58,-99.99,,,-99.99,,2014-04-16 11:22:00,
2014-04-16 07:52:00,30.0,18.0,30.26,NW,324,9.0,-999.0,61,-99.99,,,-99.99,,2014-04-16 11:52:00,
2014-04-16 08:22:00,30.0,19.0,30.27,NNW,331,7.0,-999.0,63,-99.99,,,-99.99,,2014-04-16 12:22:00,
2014-04-16 08:42:00,31.0,20.0,30.28,North,355,6.0,-999.0,62,-99.99,,,-99.99,,2014-04-16 12:42:00,
2014-04-16 08:52:00,31.0,19.0,30.29,NNW,343,6.0,-999.0,61,-99.99,,,-99.99,,2014-04-16 12:52:00,
2014-04-16 09:22:00,32.0,19.0,30.31,NNE,19,7.0,-999.0,58,-99.99,,,-99.99,,2014-04-16 13:22:00,
2014-04-16 09:42:00,33.0,20.0,30.31,WNW,300,9.0,-999.0,59,-99.99,,,-99.99,,2014-04-16 13:42:00,
2014-04-16 09:52:00,33.0,20.0,30.32,NW,316,7.0,-999.0,58,-99.99,,,-99.99,,2014-04-16 13:52:00,
2014-04-16 10:22:00,34.0,20.0,30.34,NNW,331,8.0,-999.0,56,-99.99,,,-99.99,,2014-04-16 14:22:00,
2014-04-16 10:42:00,35.0,22.0,30.35,WNW,284,6.0,-999.0,59,-99.99,,,-99.99,,2014-04-16 14:42:00,
2014-04-16 10:53:00,35.0,22.0,30.36,NW,314,7.0,-999.0,58,-99.99,,,-99.99,,2014-04-16 14:53:00,
2014-04-16 11:12:00,36.0,22.0,30.36,NNW,327,6.0,-999.0,57,-99.99,,,-99.99,,2014-04-16 15:12:00,
2014-04-16 11:22:00,36.0,23.0,30.37,WNW,292,7.0,-999.0,58,-99.99,,,-99.99,,2014-04-16 15:22:00,
2014-04-16 11:44:00,37.0,23.0,30.37,NW,305,6.0,-999.0,57,-99.99,,,-99.99,,2014-04-16 15:44:00,
2014-04-16 11:54:00,37.0,23.0,30.37,NW,323,6.0,-999.0,56,-99.99,,,-99.99,,2014-04-16 15:54:00,
2014-04-16 12:24:00,38.0,23.0,30.40,WNW,298,9.0,-999.0,55,-99.99,,,-99.99,,2014-04-16 16:24:00,
2014-04-16 12:43:00,38.0,22.0,30.40,North,355,8.0,-999.0,53,-99.99,,,-99.99,,2014-04-16 16:43:00,
2014-04-16 12:54:00,39.0,24.0,30.41,NW,313,6.0,-999.0,54,-99.99,,,-99.99,,2014-04-16 16:54:00,
2014-04-16 13:22:00,40.0,24.0,30.41,NNW,347,5.0,-999.0,53,-99.99,,,-99.99,,2014-04-16 17:22:00,
2014-04-16 13:53:00,41.0,24.0,30.41,NNE,18,6.0,-999.0,50,-99.99,,,-99.99,,2014-04-16 17:53:00,
2014-04-16 14:22:00,42.0,27.0,30.41,NNW,342,5.0,-999.0,56,-99.99,,,-99.99,,2014-04-16 18:22:00,
2014-04-16 14:52:00,43.0,25.0,30.41,North,10,6.0,-999.0,48,-99.99,,,-99.99,,2014-04-16 18:52:00,
2014-04-16 15:22:00,43.0,27.0,30.41,NW,324,7.0,-999.0,52,-99.99,,,-99.99,,2014-04-16 19:22:00,
2014-04-16 15:52:00,44.0,23.0,30.40,NNE,15,5.0,-999.0,44,-99.99,,,-99.99,,2014-04-16 19:52:00,
2014-04-16 16:22:00,45.0,25.0,30.40,NNW,347,6.0,-999.0,45,-99.99,,,-99.99,,2014-04-16 20:22:00,
2014-04-16 16:43:00,45.0,24.0,30.40,NW,321,6.0,-999.0,44,-99.99,,,-99.99,,2014-04-16 20:43:00,
2014-04-16 16:52:00,46.0,25.0,30.40,NE,51,5.0,-999.0,43,-99.99,,,-99.99,,2014-04-16 20:52:00,
2014-04-16 17:11:00,46.0,25.0,30.41,NNW,327,5.0,-999.0,43,-99.99,,,-99.99,,2014-04-16 21:11:00,
2014-04-16 17:22:00,46.0,22.0,30.41,NNW,329,7.0,-999.0,39,-99.99,,,-99.99,,2014-04-16 21:22:00,
2014-04-16 17:54:00,46.0,24.0,30.41,NNE,13,5.0,-999.0,42,-99.99,,,-99.99,,2014-04-16 21:54:00,
2014-04-16 18:23:00,46.0,21.0,30.41,NNE,17,6.0,-999.0,36,-99.99,,,-99.99,,2014-04-16 22:23:00,
2014-04-16 18:53:00,46.0,24.0,30.42,North,350,4.0,-999.0,41,-99.99,,,-99.99,,2014-04-16 22:53:00,
2014-04-16 19:22:00,45.0,23.0,30.42,North,5,4.0,-999.0,41,-99.99,,,-99.99,,2014-04-16 23:22:00,
2014-04-16 19:42:00,45.0,23.0,30.43,North,11,3.0,-999.0,41,-99.99,,,-99.99,,2014-04-16 23:42:00,
2014-04-16 19:52:00,44.0,21.0,30.43,NNE,16,3.0,-999.0,39,-99.99,,,-99.99,,2014-04-16 23:52:00,
2014-04-16 20:22:00,43.0,22.0,30.44,North,9,2.0,-999.0,42,-99.99,,,-99.99,,2014-04-17 00:22:00,
2014-04-16 20:42:00,43.0,23.0,30.45,North,5,2.0,-999.0,44,-99.99,,,-99.99,,2014-04-17 00:42:00,
2014-04-16 20:52:00,42.0,25.0,30.46,North,5,0.0,-999.0,50,-99.99,,,-99.99,,2014-04-17 00:52:00,